Time,TemperatureF,DewpointF,PressureIn,WindDirection,WindDirectionDegrees,WindSpeedMPH,WindSpeedGustMPH,Humidity,HourlyPrecipIn,Conditions,Clouds,dailyrainin,SoftwareType,DateUTC
2013-04-17 00:06:00,61.1,58.0,30.22,SE,138,0.0,-999.0,90,-99.99,,,0.00,weatherlink.com 1.10,2013-04-17 04:06:00,
2013-04-17 00:38:00,60.8,58.0,30.22,SE,138,0.0,-999.0,90,-99.99,,,0.00,weatherlink.com 1.10,2013-04-17 04:38:00,
2013-04-17 00:51:00,62.1,59.0,30.21,SE,138,0.0,-999.0,90,-99.99,,,0.00,weatherlink.com 1.10,2013-04-17 04:51:00,
2013-04-17 01:06:00,62.6,59.0,30.22,SE,138,0.0,-999.0,89,-99.99,,,0.00,weatherlink.com 1.10,2013-04-17 05:06:00,
2013-04-17 01:38:00,62.7,60.0,30.22,SE,138,0.0,-999.0,89,-99.99,,,0.00,weatherlink.com 1.10,2013-04-17 05:38:00,
2013-04-17 01:51:00,61.8,59.0,30.22,SE,138,0.0,-999.0,89,-99.99,,,0.00,weatherlink.com 1.10,2013-04-17 05:51:00,
2013-04-17 02:06:00,61.4,59.0,30.22,SE,138,0.0,-999.0,91,-99.99,,,0.00,weatherlink.com 1.10,2013-04-17 06:06:00,
2013-04-17 02:38:00,61.4,59.0,30.21,SE,138,0.0,-999.0,91,-99.99,,,0.00,weatherlink.com 1.10,2013-04-17 06:38:00,
2013-04-17 02:51:00,61.5,59.0,30.20,SE,138,0.0,-999.0,92,-99.99,,,0.00,weatherlink.com 1.10,2013-04-17 06:51:00,
2013-04-17 03:06:00,61.6,60.0,30.20,SE,138,0.0,-999.0,93,-99.99,,,0.00,weatherlink.com 1.10,2013-04-17 07:06:00,
2013-04-17 03:38:00,61.6,60.0,30.20,SE,138,0.0,-999.0,93,-99.99,,,0.00,weatherlink.com 1.10,2013-04-17 07:38:00,
2013-04-17 03:51:00,61.1,59.0,30.20,SE,138,0.0,-999.0,93,-99.99,,,0.00,weatherlink.com 1.10,2013-04-17 07:51:00,
2013-04-17 04:06:00,60.7,59.0,30.20,SE,138,0.0,-999.0,93,-99.99,,,0.00,weatherlink.com 1.10,2013-04-17 08:06:00,
2013-04-17 04:38:00,60.5,58.0,30.20,SE,138,0.0,-999.0,92,-99.99,,,0.00,weatherlink.com 1.10,2013-04-17 08:38:00,
2013-04-17 05:06:00,59.6,58.0,30.20,SE,138,0.0,-999.0,93,-99.99,,,0.00,weatherlink.com 1.10,2013-04-17 09:06:00,
2013-04-17 05:38:00,59.4,57.0,30.19,SE,138,0.0,-999.0,93,-99.99,,,0.00,weatherlink.com 1.10,2013-04-17 09:38:00,
2013-04-17 06:06:00,59.1,58.0,30.20,SE,138,0.0,-999.0,95,-99.99,,,0.00,weatherlink.com 1.10,2013-04-17 10:06:00,
2013-04-17 06:38:00,59.2,58.0,30.21,SE,138,0.0,-999.0,96,-99.99,,,0.00,weatherlink.com 1.10,2013-04-17 10:38:00,
2013-04-17 06:51:00,59.5,58.0,30.22,SE,138,0.0,-999.0,96,-99.99,,,0.00,weatherlink.com 1.10,2013-04-17 10:51:00,
2013-04-17 07:06:00,59.6,59.0,30.22,SE,138,0.0,-999.0,96,-99.99,,,0.00,weatherlink.com 1.10,2013-04-17 11:06:00,
2013-04-17 07:38:00,60.0,59.0,30.23,SE,138,0.0,-999.0,96,-99.99,,,0.00,weatherlink.com 1.10,2013-04-17 11:38:00,
2013-04-17 07:52:00,60.4,60.0,30.23,SE,138,0.0,-999.0,97,-99.99,,,0.00,weatherlink.com 1.10,2013-04-17 11:52:00,
2013-04-17 08:07:00,60.7,60.0,30.23,SE,138,0.0,-999.0,97,-99.99,,,0.00,weatherlink.com 1.10,2013-04-17 12:07:00,
2013-04-17 08:38:00,61.5,61.0,30.22,SE,138,0.0,-999.0,97,-99.99,,,0.00,weatherlink.com 1.10,2013-04-17 12:38:00,
2013-04-17 08:52:00,62.1,61.0,30.21,SE,138,0.0,-999.0,96,-99.99,,,0.00,weatherlink.com 1.10,2013-04-17 12:52:00,
2013-04-17 09:07:00,63.0,62.0,30.20,SE,138,0.0,-999.0,95,-99.99,,,0.00,weatherlink.com 1.10,2013-04-17 13:07:00,
2013-04-17 09:37:00,63.5,62.0,30.20,SE,138,0.0,-999.0,94,-99.99,,,0.00,weatherlink.com 1.10,2013-04-17 13:37:00,
2013-04-17 09:51:00,66.1,63.0,30.19,ESE,117,1.0,-999.0,89,-99.99,,,0.00,weatherlink.com 1.10,2013-04-17 13:51:00,
2013-04-17 10:07:00,67.0,63.0,30.20,ESE,117,0.0,-999.0,86,-99.99,,,0.00,weatherlink.com 1.10,2013-04-17 14:07:00,
2013-04-17 10:38:00,67.4,63.0,30.20,ESE,117,0.0,-999.0,86,-99.99,,,0.00,weatherlink.com 1.10,2013-04-17 14:38:00,
2013-04-17 10:52:00,70.6,65.0,30.20,East,101,1.0,-999.0,81,-99.99,,,0.00,weatherlink.com 1.10,2013-04-17 14:52:00,
2013-04-17 11:07:00,70.6,64.0,30.20,East,101,0.0,-999.0,79,-99.99,,,0.00,weatherlink.com 1.10,2013-04-17 15:07:00,
2013-04-17 11:31:00,71.6,65.0,30.20,East,100,0.0,-999.0,79,-99.99,,,0.00,weatherlink.com 1.10,2013-04-17 15:31:00,
2013-04-17 11:37:00,72.3,65.0,30.20,East,100,0.0,-999.0,77,-99.99,,,0.00,weatherlink.com 1.10,2013-04-17 15:37:00,
2013-04-17 11:52:00,73.4,65.0,30.20,East,100,1.0,-999.0,76,-99.99,,,0.00,weatherlink.com 1.10,2013-04-17 15:52:00,
2013-04-17 12:26:00,74.2,65.0,30.19,East,100,0.0,-999.0,73,-99.99,,,0.00,weatherlink.com 1.10,2013-04-17 16:26:00,
2013-04-17 12:36:00,76.4,66.0,30.18,East,98,0.0,-999.0,70,-99.99,,,0.00,weatherlink.com 1.10,2013-04-17 16:36:00,
2013-04-17 12:51:00,77.9,65.0,30.17,East,97,0.0,-999.0,64,-99.99,,,0.00,weatherlink.com 1.10,2013-04-17 16:51:00,
2013-04-17 13:16:00,79.2,65.0,30.16,East,98,1.0,-999.0,61,-99.99,,,0.00,weatherlink.com 1.10,2013-04-17 17:16:00,
2013-04-17 13:36:00,78.9,65.0,30.16,East,98,1.0,-999.0,62,-99.99,,,0.00,weatherlink.com 1.10,2013-04-17 17:36:00,
2013-04-17 14:12:00,78.9,65.0,30.16,East,98,0.0,-999.0,62,-99.99,,,0.00,weatherlink.com 1.10,2013-04-17 18:12:00,
2013-04-17 14:22:00,78.9,65.0,30.15,East,101,0.0,-999.0,63,-99.99,,,0.00,weatherlink.com 1.10,2013-04-17 18:22:00,
2013-04-17 14:37:00,78.9,65.0,30.15,East,101,0.0,-999.0,63,-99.99,,,0.00,weatherlink.com 1.10,2013-04-17 18:37:00,
2013-04-17 15:12:00,78.6,65.0,30.15,SE,128,0.0,-999.0,63,-99.99,,,0.00,weatherlink.com 1.10,2013-04-17 19:12:00,
2013-04-17 15:22:00,77.6,65.0,30.14,SE,126,0.0,-999.0,65,-99.99,,,0.00,weatherlink.com 1.10,2013-04-17 19:22:00,
2013-04-17 15:37:00,77.6,64.0,30.13,SE,126,0.0,-999.0,64,-99.99,,,0.00,weatherlink.com 1.10,2013-04-17 19:37:00,
2013-04-17 16:12:00,78.0,65.0,30.13,SE,126,0.0,-999.0,64,-99.99,,,0.00,weatherlink.com 1.10,2013-04-17 20:12:00,
2013-04-17 16:22:00,80.1,65.0,30.11,ESE,112,0.0,-999.0,60,-99.99,,,0.00,weatherlink.com 1.10,2013-04-17 20:22:00,
2013-04-17 16:37:00,80.3,64.0,30.11,ENE,62,1.0,-999.0,58,-99.99,,,0.00,weatherlink.com 1.10,2013-04-17 20:37:00,
2013-04-17 17:12:00,79.7,63.0,30.11,ENE,62,0.0,-999.0,56,-99.99,,,0.00,weatherlink.com 1.10,2013-04-17 21:12:00,
2013-04-17 17:22:00,80.6,63.0,30.10,ENE,62,0.0,-999.0,56,-99.99,,,0.00,weatherlink.com 1.10,2013-04-17 21:22:00,
2013-04-17 17:37:00,80.9,63.0,30.10,ENE,62,0.0,-999.0,54,-99.99,,,0.00,weatherlink.com 1.10,2013-04-17 21:37:00,
2013-04-17 18:12:00,80.6,63.0,30.11,ENE,62,0.0,-999.0,55,-99.99,,,0.00,weatherlink.com 1.10,2013-04-17 22:12:00,
2013-04-17 18:21:00,80.5,64.0,30.11,ENE,62,0.0,-999.0,58,-99.99,,,0.00,weatherlink.com 1.10,2013-04-17 22:21:00,
2013-04-17 18:36:00,79.9,64.0,30.11,ENE,62,0.0,-999.0,58,-99.99,,,0.00,weatherlink.com 1.10,2013-04-17 22:36:00,
2013-04-17 19:12:00,79.4,64.0,30.11,ENE,62,0.0,-999.0,59,-99.99,,,0.00,weatherlink.com 1.10,2013-04-17 23:12:00,
2013-04-17 19:21:00,78.6,64.0,30.11,ENE,62,0.0,-999.0,62,-99.99,,,0.00,weatherlink.com 1.10,2013-04-17 23:21:00,
2013-04-17 19:36:00,78.0,65.0,30.11,ENE,62,0.0,-999.0,64,-99.99,,,0.00,weatherlink.com 1.10,2013-04-17 23:36:00,
2013-04-17 20:12:00,77.5,65.0,30.11,ENE,62,0.0,-999.0,65,-99.99,,,0.00,weatherlink.com 1.10,2013-04-18 00:12:00,
2013-04-17 20:21:00,75.7,65.0,30.11,ENE,62,0.0,-999.0,70,-99.99,,,0.00,weatherlink.com 1.10,2013-04-18 00:21:00,
2013-04-17 21:11:00,74.7,66.0,30.12,ENE,62,0.0,-999.0,74,-99.99,,,0.00,weatherlink.com 1.10,2013-04-18 01:11:00,
2013-04-17 21:21:00,73.2,66.0,30.13,ENE,62,0.0,-999.0,77,-99.99,,,0.00,weatherlink.com 1.10,2013-04-18 01:21:00,
2013-04-17 22:11:00,72.4,66.0,30.14,ENE,62,0.0,-999.0,79,-99.99,,,0.00,weatherlink.com 1.10,2013-04-18 02:11:00,
2013-04-17 22:21:00,71.2,66.0,30.14,ENE,62,0.0,-999.0,82,-99.99,,,0.00,weatherlink.com 1.10,2013-04-18 02:21:00,
2013-04-17 22:36:00,70.9,65.0,30.14,ENE,62,0.0,-999.0,82,-99.99,,,0.00,weatherlink.com 1.10,2013-04-18 02:36:00,
2013-04-17 23:11:00,70.7,65.0,30.14,ENE,62,0.0,-999.0,83,-99.99,,,0.00,weatherlink.com 1.10,2013-04-18 03:11:00,
2013-04-17 23:21:00,70.4,64.0,30.15,ENE,62,0.0,-999.0,80,-99.99,,,0.00,weatherlink.com 1.10,2013-04-18 03:21:00,
2013-04-17 23:36:00,71.4,64.0,30.15,ENE,62,0.0,-999.0,77,-99.99,,,0.00,weatherlink.com 1.10,2013-04-18 03:36:00,